Regional Weather Roundup
Issued by NWS

Home | Current Version | Previous Version | Text Only | Print | Product List | Glossary Off
Versions: 1 2 3 4 5 6 7 8 9 10 11 12 13 14 15 16 17 18 19 20 21 22 23 24 25 26 27 28 29 30 31 32 33 34 35 36 37 38 39 40 41 42 43 44 45 46 47 48 49 50

000
ASUS43 KFSD 310210
RWRSD

WEATHER ROUNDUP FOR SOUTH DAKOTA
NATIONAL WEATHER SERVICE SIOUX FALLS SD
900 PM CDT SUN AUG 30 2015

NOTE: "FAIR" INDICATES FEW OR NO CLOUDS BELOW 12,000 FEET WITH NO
SIGNIFICANT WEATHER AND/OR OBSTRUCTIONS TO VISIBILITY.


SDZ001>005-009-010-012>017-310300-
NORTHWEST AND NORTH CENTRAL SOUTH DAKOTA

CITY           SKY/WX    TMP DP  RH WIND       PRES   REMARKS
BUFFALO          N/A     78  54  43 NE9       29.67F
FAITH            N/A     85  56  37 CALM      29.69F
MOBRIDGE       PTCLDY    80  61  52 SE13      29.64R
$$

SDZ012>016-024>037-041>051-057-063-072>074-310300-
SOUTHWEST AND SOUTH CENTRAL SOUTH DAKOTA

CITY           SKY/WX    TMP DP  RH WIND       PRES   REMARKS
RAPID CTY ARPT MOCLDY    73  59  61 N13       29.80R
PIERRE         CLEAR     81  55  40 SE14      29.67R
CUSTER         CLOUDY    68  53  58 NW9       29.96F
ELLSWORTH AFB  CLOUDY    72  61  68 N13       29.80
PHILIP         CLEAR     74  61  63 E9        29.67R
PINE RIDGE     CLEAR     88  42  20 S15G22    29.78R
WINNER         FAIR      83  51  33 S22       29.74S
$$

SDZ004>011-016>023-039-040-310300-
NORTHEAST SOUTH DAKOTA

CITY           SKY/WX    TMP DP  RH WIND       PRES   REMARKS
ABERDEEN       PTCLDY    75  68  78 S17       29.72S
WATERTOWN      MOCLDY    69  65  86 S12       29.83R
BROOKINGS      PTCLDY    66  63  88 S14       29.89S
SISSETON         N/A     73  65  75 S8        29.76R
$$

SDZ017-020-022-023-036>040-048>070-310300-
SOUTHEAST SOUTH DAKOTA

CITY           SKY/WX    TMP DP  RH WIND       PRES   REMARKS
SIOUX FALLS    MOCLDY    68  65  90 S10       29.90R
HURON          MOCLDY    74  67  78 S17G26    29.78R
CHAMBERLAIN    PTCLDY    74  66  75 SE12      29.76R
MITCHELL       PTCLDY    73  66  78 SE16      29.83R
YANKTON        CLEAR     70  66  88 SE7       29.88R
$$

ABBREVIATIONS USED IN REMARKS
   TC - TEMPERATURE IN CELSIUS
  WCI - WIND CHILL INDEX
   HX - HEAT INDEX
  VSB - VISIBILITY



USA.gov is the U.S. government's official web portal to all federal, state and local government web resources and services.